Location: McCall
(45.0000°N, 116.0000°W)
Time: 10:24:47
(UTC-07:00)

Amateur Radio Satellites - All Passes

Search period start: 07 February 2016 09:54
Search period end: 08 February 2016 09:54
Location: McCall, 45.0000°N, 116.0000°W

Satellite Date Start Highest point End Downlink Frequencies (MHz)
Time Altitude Azimuth
POLYITAN 1 07 Feb 09:57:11 09:59:32 15° 62° (ENE) 10:01:53 437.675
QB50P2 07 Feb 09:57:51 10:00:19 15° 62° (ENE) 10:02:48 145.880/145.840
TIGRISAT 07 Feb 10:00:12 10:04:25 53° 72° (ENE) 10:08:35 435.000
ZACube-1 07 Feb 10:00:15 10:04:15 42° 98° (E) 10:08:18 437.345
CINEMA 3 07 Feb 10:02:24 10:06:10 34° 291° (WNW) 10:09:55 145.822/145.860
AAUSAT CUBESAT 2 07 Feb 10:06:52 10:10:57 51° 287° (WNW) 10:15:01 437.432
DELFI C3 07 Feb 10:08:52 10:12:39 37° 97° (E) 10:16:25 145.870
FUNcube-1 07 Feb 10:10:49 10:14:56 53° 100° (E) 10:19:04 145.935
O/OREOS (USA 219) 07 Feb 10:14:44 10:18:46 32° 303° (WNW) 10:22:50 437.305
BUGSAT 1 07 Feb 10:17:24 10:19:00 12° 60° (ENE) 10:20:34 437.445
CANX-2 07 Feb 10:17:54 10:20:57 19° 296° (WNW) 10:23:59 2200.000
GONETS M04 07 Feb 10:23:34 10:32:15 77° 280° (W) 10:41:01
POPSAT HIP 1 07 Feb 10:27:02 10:30:38 28° 67° (ENE) 10:34:14 437.405
CUBEBUG 2 07 Feb 10:28:50 10:32:50 47° 288° (WNW) 10:36:53 437.445
NANOSAT C BR1 07 Feb 10:33:25 10:37:09 31° 68° (ENE) 10:40:54 145.865
HO-68 07 Feb 10:33:48 10:40:15 37° 299° (WNW) 10:46:41 435.675
UWE-3 07 Feb 10:35:43 10:39:48 55° 287° (WNW) 10:43:56 435.000/436.395/437.385
DUCHIFAT 1 07 Feb 10:36:09 10:39:54 32° 68° (ENE) 10:43:39 145.980
QB50P1 07 Feb 10:39:35 10:43:30 37° 70° (ENE) 10:47:25 145.935-145.965
UNISAT 6 07 Feb 10:43:48 10:48:02 50° 260° (W) 10:52:13 437.425
AO-85 07 Feb 10:44:07 10:48:02 21° 109° (ESE) 10:52:02 145.980
HUMSAT D 07 Feb 10:44:12 10:48:05 38° 98° (E) 10:52:01 437.325/437.525
Oscar 11 07 Feb 10:48:23 10:52:33 46° 289° (WNW) 10:56:42 145.826/435.025
DX 1 07 Feb 10:57:10 10:58:33 11° 89° (E) 10:59:55 434.975-435.025
50 SAT 07 Feb 10:57:44 10:59:09 12° 90° (E) 11:00:33 437.505
AIST 1 07 Feb 10:58:52 11:02:42 30° 90° (E) 11:06:32
RS-15 07 Feb 11:03:39 11:11:47 24° 100° (E) 11:20:09 29.354- 29.394
COMPASS 1 07 Feb 11:13:25 11:14:21 11° 301° (WNW) 11:15:17 437.405
ANTELSAT 07 Feb 11:30:33 11:33:28 18° 268° (W) 11:36:22 437.575/2403.000
POLYITAN 1 07 Feb 11:30:41 11:34:53 61° 259° (W) 11:39:06 437.675
QB50P2 07 Feb 11:31:31 11:35:42 58° 259° (W) 11:39:53 145.880/145.840
ZACube-1 07 Feb 11:37:19 11:40:17 19° 295° (WNW) 11:43:17 437.345
TIGRISAT 07 Feb 11:38:52 11:41:26 15° 269° (W) 11:43:58 435.000
VELOX 1 07 Feb 11:39:26 11:43:21 30° 96° (E) 11:47:13 145.980
DELFI C3 07 Feb 11:44:21 11:47:21 20° 295° (WNW) 11:50:20 145.870
Cosmos 2499 07 Feb 11:45:20 11:53:49 56° 285° (WNW) 12:02:34 435.465 / 435.565
FUNcube-1 07 Feb 11:48:15 11:50:48 16° 297° (WNW) 11:53:22 145.935
BUGSAT 1 07 Feb 11:49:34 11:53:48 77° 258° (WSW) 11:58:00 437.445
AISAT 07 Feb 11:55:21 11:59:38 45° 99° (E) 12:03:50 437.250
POPSAT HIP 1 07 Feb 12:02:40 12:06:22 29° 264° (W) 12:10:05 437.405
ESTCUBE 1 07 Feb 12:05:42 12:10:15 64° 101° (ESE) 12:14:45 437.505/2401.250
NANOSAT C BR1 07 Feb 12:09:24 12:12:56 25° 265° (W) 12:16:27 145.865
DUCHIFAT 1 07 Feb 12:12:10 12:15:39 25° 265° (W) 12:19:08 145.980
PCSat 07 Feb 12:12:16 12:17:39 72° 118° (ESE) 12:23:05 145.827
QB50P1 07 Feb 12:16:10 12:19:25 21° 267° (W) 12:22:40 145.935-145.965
HUMSAT D 07 Feb 12:20:26 12:23:31 21° 295° (WNW) 12:26:37 437.325/437.525
AO-85 07 Feb 12:22:40 12:28:03 69° 308° (NW) 12:33:34 145.980
CUBEBUG 1 07 Feb 12:23:17 12:27:42 74° 102° (ESE) 12:32:02 437.445
UKube-1 07 Feb 12:23:55 12:28:17 80° 105° (ESE) 12:32:35 .
GONETS M04 07 Feb 12:25:16 12:30:46 18° 304° (WNW) 12:36:18
JAS-2 07 Feb 12:27:51 12:34:32 35° 64° (ENE) 12:40:43 435.910
50 SAT 07 Feb 12:29:48 12:33:31 55° 287° (WNW) 12:37:15 437.505
DX 1 07 Feb 12:30:54 12:35:16 74° 286° (WNW) 12:39:36 434.975-435.025
SO-50 07 Feb 12:33:50 12:35:57 13° 25° (NNE) 12:38:04 436.795
AIST 1 07 Feb 12:36:34 12:40:17 26° 288° (WNW) 12:44:02
SPROUT 07 Feb 12:38:12 12:42:13 38° 98° (E) 12:46:12 437.525
AO-7 07 Feb 12:38:51 12:41:08 11° 35° (NE) 12:43:26 29.400- 29.500
TISAT 1 07 Feb 12:58:26 13:01:50 24° 94° (E) 13:05:12 437.305
Oscar 19 07 Feb 12:58:44 13:03:52 62° 72° (ENE) 13:08:59 437.125/150
Gurwin Techsat 1B 07 Feb 13:07:59 13:12:36 31° 65° (ENE) 13:17:14 435.225
CUSAT 1 07 Feb 13:08:51 13:15:10 49° 71° (ENE) 13:19:59 437.405
RS-15 07 Feb 13:11:13 13:22:23 87° 124° (SE) 13:34:15 29.354- 29.394
YUBILEINY 07 Feb 13:11:37 13:17:05 17° 55° (NE) 13:22:30 435.215
VELOX 1 07 Feb 13:15:57 13:19:47 29° 293° (WNW) 13:23:35 145.980
DANDE 07 Feb 13:18:08 13:25:14 39° 67° (ENE) 13:30:53 436.750
AISAT 07 Feb 13:32:36 13:35:48 20° 297° (WNW) 13:39:00 437.250
ESTCUBE 1 07 Feb 13:43:50 13:46:34 16° 299° (WNW) 13:49:16 437.505/2401.250
Cosmos 2499 07 Feb 13:45:27 13:49:18 13° 309° (NW) 13:53:11 435.465 / 435.565
ITUPSAT 1 07 Feb 13:50:39 13:53:48 17° 91° (E) 13:56:57 437.325
PCSat 07 Feb 13:57:18 14:01:37 23° 319° (NW) 14:05:56 145.827
BEESAT 07 Feb 14:00:34 14:04:15 22° 93° (E) 14:07:56 436.000
CUBEBUG 1 07 Feb 14:01:21 14:03:24 13° 300° (WNW) 14:05:27 437.445
ITAMSAT 1 07 Feb 14:01:36 14:06:35 49° 69° (ENE) 14:11:36 435.822/435.867
UKube-1 07 Feb 14:02:01 14:03:42 12° 301° (WNW) 14:05:24 .
AO-85 07 Feb 14:05:47 14:09:36 19° 329° (NNW) 14:13:25 145.980
JAS-2 07 Feb 14:11:42 14:19:16 56° 260° (W) 14:26:17 435.910
SO-50 07 Feb 14:13:02 14:17:43 45° 47° (NE) 14:22:14 436.795
SPROUT 07 Feb 14:14:43 14:17:58 22° 295° (WNW) 14:21:13 437.525
AO-7 07 Feb 14:24:01 14:31:39 41° 58° (ENE) 14:39:18 29.400- 29.500
TISAT 1 07 Feb 14:33:49 14:37:33 32° 292° (WNW) 14:41:16 437.305
Cosmos 2504 07 Feb 14:35:42 14:38:56 12° 49° (NE) 14:42:07 435.465 / 435.565
Oscar 19 07 Feb 14:40:07 14:43:36 18° 269° (W) 14:47:07 437.125/150
Gurwin Techsat 1B 07 Feb 14:47:30 14:52:26 38° 263° (W) 14:57:24 435.225
SWISSCUBE 07 Feb 14:51:48 14:56:37 74° 101° (ESE) 15:01:25 437.505
CUSAT 1 07 Feb 14:51:57 14:56:52 24° 278° (W) 15:00:53 437.405
M-CUBED/EXP-1 PRIME 07 Feb 14:52:34 14:55:36 25° 64° (ENE) 14:58:29 437.505
DANDE 07 Feb 15:01:20 15:08:14 41° 272° (W) 15:13:42 436.750
AUBIESAT-1 07 Feb 15:04:41 15:07:49 28° 64° (ENE) 15:10:49 437.475
YUBILEINY 07 Feb 15:06:48 15:15:41 73° 79° (E) 15:24:30 435.215
Cosmos 2491 07 Feb 15:13:55 15:21:45 39° 86° (E) 15:29:36 435.465 / 435.565
HORYU 2 07 Feb 15:14:54 15:18:16 22° 64° (ENE) 15:21:38 437.375
RS-15 07 Feb 15:25:56 15:36:24 39° 331° (NNW) 15:47:25 29.354- 29.394
ITUPSAT 1 07 Feb 15:27:17 15:32:02 58° 289° (WNW) 15:36:45 437.325
BEESAT 07 Feb 15:37:41 15:42:16 46° 290° (WNW) 15:46:50 436.000
ITAMSAT 1 07 Feb 15:42:15 15:46:18 23° 267° (W) 15:50:24 435.822/435.867
SO-50 07 Feb 15:53:59 15:58:00 27° 247° (WSW) 16:01:53 436.795
MOZHAYETS 4 07 Feb 15:57:58 16:01:25 20° 92° (E) 16:04:50
STARS 07 Feb 16:13:22 16:17:26 37° 98° (E) 16:21:29 437.465
AO-7 07 Feb 16:16:09 16:24:15 52° 258° (WSW) 16:32:25 29.400- 29.500
KKS-1 07 Feb 16:23:07 16:27:35 85° 104° (ESE) 16:32:01 437.445
Cosmos 2504 07 Feb 16:26:15 16:34:49 54° 74° (ENE) 16:42:49 435.465 / 435.565
M-CUBED/EXP-1 PRIME 07 Feb 16:27:10 16:30:13 24° 258° (WSW) 16:33:07 437.505
SWISSCUBE 07 Feb 16:31:04 16:33:50 15° 301° (WNW) 16:36:37 437.505
AUBIESAT-1 07 Feb 16:39:35 16:42:25 21° 259° (WSW) 16:45:08 437.475
HORYU 2 07 Feb 16:50:24 16:54:35 41° 261° (W) 16:58:47 437.375
CUTE-I 07 Feb 17:00:31 17:04:44 24° 62° (ENE) 17:08:58 437.470
BRITE-PL 07 Feb 17:04:05 17:07:19 16° 59° (ENE) 17:10:32 437.365/2234.400
YUBILEINY 07 Feb 17:04:45 17:11:37 26° 280° (W) 17:18:28 435.215
O/OREOS (USA 219) 07 Feb 17:05:21 17:07:13 12° 46° (NE) 17:09:05 437.305
Cosmos 2491 07 Feb 17:10:00 17:18:23 50° 287° (WNW) 17:26:49 435.465 / 435.565
Cubesat XI-IV 07 Feb 17:12:56 17:17:31 30° 64° (ENE) 17:22:08 437.490
AO-85 07 Feb 17:33:47 17:35:32 11° 18° (NNE) 17:37:16 145.980
MOZHAYETS 4 07 Feb 17:34:22 17:38:48 46° 289° (WNW) 17:43:14
ISS 07 Feb 17:35:06 17:38:15 49° 143° (SE) 17:41:24 145.825
HO-68 07 Feb 17:35:51 17:37:03 10° 42° (NE) 17:38:16 435.675
RS-15 07 Feb 17:43:23 17:53:16 29° 6° (N) 18:03:28 29.354- 29.394
STARS 07 Feb 17:50:09 17:53:37 23° 295° (WNW) 17:57:05 437.465
KKS-1 07 Feb 18:01:53 18:03:30 12° 302° (WNW) 18:05:08 437.445
LilacSat-2 07 Feb 18:07:08 18:10:57 71° 75° (ENE) 18:14:46 437.200
CUBESAT XI-V 07 Feb 18:07:50 18:12:22 45° 98° (E) 18:16:51 437.345
DOVE 4 07 Feb 18:16:51 18:20:11 18° 63° (ENE) 18:23:25 437.250
Cosmos 2504 07 Feb 18:20:10 18:27:51 37° 276° (W) 18:35:08 435.465 / 435.565
GOMX 1 07 Feb 18:21:07 18:26:00 35° 68° (ENE) 18:30:43 467.674
BEESAT 3 07 Feb 18:21:43 18:25:34 50° 120° (ESE) 18:29:27 437.485
GONETS M04 07 Feb 18:36:50 18:41:00 14° 52° (NE) 18:45:10
CUTE-I 07 Feb 18:39:17 18:44:27 51° 260° (W) 18:49:40 437.470
BRITE-PL 07 Feb 18:39:19 18:45:02 88° 80° (E) 18:50:40 437.365/2234.400
BEESAT 2 07 Feb 18:41:19 18:45:13 52° 120° (ESE) 18:49:10 435.950
O/OREOS (USA 219) 07 Feb 18:42:49 18:47:26 80° 66° (ENE) 18:52:01 437.305
Cubesat XI-IV 07 Feb 18:52:29 18:57:27 40° 262° (W) 19:02:28 437.490
CUTE 1.7 + AOD 2 07 Feb 18:53:24 18:55:32 14° 61° (ENE) 18:57:41 437.475
SEEDS 07 Feb 19:04:16 19:06:22 14° 61° (ENE) 19:08:27 437.485
ISS 07 Feb 19:11:45 19:14:47 35° 343° (NNW) 19:17:49 145.825
AO-85 07 Feb 19:13:02 19:17:47 32° 42° (NE) 19:22:13 145.980
PCSat 07 Feb 19:15:40 19:19:31 19° 37° (NE) 19:23:21 145.827
Cosmos 2491 07 Feb 19:16:03 19:17:52 11° 312° (NW) 19:19:42 435.465 / 435.565
HO-68 07 Feb 19:16:16 19:23:00 46° 64° (ENE) 19:29:46 435.675
STRAND 1 07 Feb 19:24:52 19:29:36 35° 97° (E) 19:34:18 437.568
AAUSAT CUBESAT 2 07 Feb 19:25:39 19:27:48 14° 62° (ENE) 19:29:58 437.432
CINEMA 3 07 Feb 19:28:53 19:32:49 28° 68° (ENE) 19:36:38 145.822/145.860
CANX-2 07 Feb 19:35:52 19:39:48 40° 71° (ENE) 19:43:46 2200.000
Cosmos 2499 07 Feb 19:43:25 19:48:01 15° 53° (NE) 19:52:27 435.465 / 435.565
CUBESAT XI-V 07 Feb 19:45:51 19:49:28 22° 296° (WNW) 19:53:05 437.345
DOVE 4 07 Feb 19:52:19 19:57:27 66° 259° (W) 20:02:19 437.250
CUBEBUG 2 07 Feb 19:53:31 19:56:31 19° 65° (ENE) 19:59:28 437.445
RS-15 07 Feb 19:57:56 20:09:33 50° 38° (NE) 20:21:25 29.354- 29.394
GOMX 1 07 Feb 19:59:06 20:04:02 34° 264° (W) 20:08:48 467.674
UWE-3 07 Feb 19:59:59 20:02:34 16° 63° (ENE) 20:05:07 435.000/436.395/437.385
BEESAT 3 07 Feb 20:00:30 20:03:36 21° 319° (NW) 20:06:43 437.485
Oscar 11 07 Feb 20:10:07 20:13:06 19° 64° (ENE) 20:16:06 145.826/435.025
AIST 2 07 Feb 20:17:04 20:21:10 57° 121° (ESE) 20:25:16 435.215
BEESAT 2 07 Feb 20:20:18 20:23:25 21° 319° (NW) 20:26:31 435.950
BRITE-PL 07 Feb 20:21:07 20:24:08 14° 273° (W) 20:27:09 437.365/2234.400
O/OREOS (USA 219) 07 Feb 20:24:38 20:26:08 11° 263° (W) 20:27:38 437.305
CUTE 1.7 + AOD 2 07 Feb 20:26:42 20:30:53 64° 259° (W) 20:35:05 437.475
COMPASS 1 07 Feb 20:27:38 20:31:46 74° 75° (ENE) 20:35:56 437.405
GONETS M04 07 Feb 20:31:18 20:40:01 61° 77° (ENE) 20:48:43
SEEDS 07 Feb 20:37:26 20:41:34 64° 259° (W) 20:45:45 437.485
PRISM 07 Feb 20:48:30 20:52:42 79° 102° (ESE) 20:56:53 437.425
ISS 07 Feb 20:49:06 20:51:50 24° 3° (N) 20:54:34 145.825
AO-85 07 Feb 20:53:34 20:58:30 45° 243° (WSW) 21:03:00 145.980
DELFI C3 07 Feb 20:57:13 21:00:40 29° 68° (ENE) 21:04:08 145.870
ZACube-1 07 Feb 20:57:57 21:01:56 42° 71° (ENE) 21:05:53 437.345
PCSat 07 Feb 20:58:16 21:03:44 86° 58° (ENE) 21:09:09 145.827
AAUSAT CUBESAT 2 07 Feb 20:58:45 21:02:50 61° 260° (W) 21:06:58 437.432
STRAND 1 07 Feb 21:04:08 21:08:42 32° 294° (WNW) 21:13:15 437.568
HO-68 07 Feb 21:04:10 21:10:47 39° 263° (W) 21:17:27 435.675
CINEMA 3 07 Feb 21:05:42 21:09:53 32° 264° (W) 21:13:56 145.822/145.860
FUNcube-1 07 Feb 21:08:10 21:12:16 52° 73° (ENE) 21:16:19 145.935
CANX-2 07 Feb 21:12:48 21:15:51 19° 268° (W) 21:18:55 2200.000
CUBEBUG 2 07 Feb 21:28:40 21:32:52 46° 261° (W) 21:36:58 437.445
UWE-3 07 Feb 21:34:27 21:38:39 54° 260° (W) 21:42:48 435.000/436.395/437.385
Cosmos 2499 07 Feb 21:34:38 21:43:10 66° 77° (ENE) 21:51:03 435.465 / 435.565
HUMSAT D 07 Feb 21:37:33 21:41:15 34° 69° (ENE) 21:44:57 437.325/437.525
Oscar 11 07 Feb 21:44:46 21:48:54 46° 261° (W) 21:53:05 145.826/435.025
UKube-1 07 Feb 21:48:15 21:49:04 10° 58° (ENE) 21:49:55 .
DX 1 07 Feb 21:54:18 21:56:41 15° 60° (ENE) 21:59:04 434.975-435.025
AIST 2 07 Feb 21:56:47 21:59:59 21° 320° (NW) 22:03:12 435.215
COMPASS 1 07 Feb 22:07:13 22:07:52 10° 272° (W) 22:08:31 437.405
RS-15 07 Feb 22:10:45 22:22:41 66° 244° (WSW) 22:34:47 29.354- 29.394
ISS 07 Feb 22:25:38 22:28:48 47° 22° (NNE) 22:31:58 145.825
PRISM 07 Feb 22:25:56 22:27:26 12° 301° (WNW) 22:28:56 437.425
GONETS M04 07 Feb 22:28:52 22:36:18 32° 277° (W) 22:43:46
DELFI C3 07 Feb 22:32:19 22:35:34 24° 266° (W) 22:38:52 145.870
UNISAT 6 07 Feb 22:33:34 22:37:15 27° 95° (E) 22:40:59 437.425
ZACube-1 07 Feb 22:35:31 22:38:26 18° 268° (W) 22:41:21 437.345
VELOX 1 07 Feb 22:38:31 22:42:34 35° 68° (ENE) 22:46:37 145.980
AIST 1 07 Feb 22:40:40 22:45:04 87° 266° (W) 22:49:24
PCSat 07 Feb 22:43:30 22:46:22 15° 257° (WSW) 22:49:14 145.827
FUNcube-1 07 Feb 22:46:28 22:48:51 15° 269° (W) 22:51:13 145.935
AISAT 07 Feb 22:54:24 22:58:45 52° 72° (ENE) 23:03:07 437.250
ESTCUBE 1 07 Feb 23:06:52 23:11:22 74° 74° (ENE) 23:15:55 437.505/2401.250
50 SAT 07 Feb 23:11:39 23:15:21 87° 252° (WSW) 23:19:06 437.505
HUMSAT D 07 Feb 23:13:51 23:16:59 21° 266° (W) 23:20:08 437.325/437.525
POLYITAN 1 07 Feb 23:14:37 23:17:34 18° 92° (E) 23:20:31 437.675
QB50P2 07 Feb 23:15:19 23:18:22 19° 93° (E) 23:21:25 145.880/145.840
ANTELSAT 07 Feb 23:18:14 23:22:34 80° 103° (ESE) 23:26:57 437.575/2403.000
UKube-1 07 Feb 23:20:04 23:24:25 86° 80° (E) 23:28:47 .
CUBEBUG 1 07 Feb 23:20:45 23:25:11 77° 75° (ENE) 23:29:39 437.445
TIGRISAT 07 Feb 23:25:57 23:30:16 89° 284° (WNW) 23:34:39 435.000
DX 1 07 Feb 23:27:59 23:32:22 67° 258° (WSW) 23:36:45 434.975-435.025
Cosmos 2499 07 Feb 23:28:43 23:35:33 28° 279° (W) 23:42:00 435.465 / 435.565
BUGSAT 1 07 Feb 23:31:22 23:33:12 13° 90° (E) 23:35:02 437.445
SPROUT 07 Feb 23:33:42 23:37:41 38° 70° (ENE) 23:41:40 437.525
POPSAT HIP 1 07 Feb 23:45:02 23:48:57 37° 98° (E) 23:52:51 437.405
NANOSAT C BR1 07 Feb 23:51:09 23:55:10 42° 99° (E) 23:59:08 145.865
TISAT 1 07 Feb 23:52:08 23:55:33 24° 66° (ENE) 23:58:58 437.305
DUCHIFAT 1 07 Feb 23:53:37 23:57:38 43° 99° (E) 00:01:36 145.980
QB50P1 07 Feb 23:57:47 00:01:55 52° 100° (E) 00:06:00 145.935-145.965
ISS 08 Feb 00:02:16 00:05:09 29° 221° (SW) 00:08:01 145.825
UNISAT 6 08 Feb 00:10:12 00:13:59 30° 292° (WNW) 00:17:48 437.425
VELOX 1 08 Feb 00:15:24 00:19:06 25° 265° (W) 00:22:49 145.980
SWISSCUBE 08 Feb 00:25:11 00:27:40 14° 58° (ENE) 00:30:10 437.505
RS-15 08 Feb 00:26:23 00:32:41 16° 266° (W) 00:39:04 29.354- 29.394
AISAT 08 Feb 00:32:38 00:35:33 17° 269° (W) 00:38:29 437.250
CUSAT 1 08 Feb 00:36:05 00:38:01 11° 74° (ENE) 00:39:58 437.405
ESTCUBE 1 08 Feb 00:46:54 00:48:42 12° 272° (W) 00:50:32 437.505/2401.250
POLYITAN 1 08 Feb 00:49:37 00:53:35 42° 289° (WNW) 00:57:33 437.675
QB50P2 08 Feb 00:50:25 00:54:22 40° 290° (WNW) 00:58:18 145.880/145.840
ANTELSAT 08 Feb 00:57:04 00:58:42 12° 300° (WNW) 01:00:21 437.575/2403.000
ITUPSAT 1 08 Feb 00:59:06 01:02:59 25° 64° (ENE) 01:06:55 437.325
CUBEBUG 1 08 Feb 01:00:40 01:02:02 11° 272° (W) 01:03:24 437.445
BEESAT 3 08 Feb 01:01:44 01:02:50 11° 31° (NNE) 01:03:57 437.485
BUGSAT 1 08 Feb 01:05:00 01:09:00 57° 287° (WNW) 01:12:55 437.445
TIGRISAT 08 Feb 01:05:31 01:06:18 10° 301° (WNW) 01:07:05 435.000
BEESAT 08 Feb 01:08:43 01:12:53 31° 66° (ENE) 01:17:05 436.000
Oscar 19 08 Feb 01:09:19 01:12:52 19° 91° (E) 01:16:23 437.125/150
SPROUT 08 Feb 01:10:30 01:13:48 21° 267° (W) 01:17:06 437.525
POPSAT HIP 1 08 Feb 01:21:21 01:24:33 22° 295° (WNW) 01:27:45 437.405
JAS-2 08 Feb 01:21:30 01:25:13 17° 87° (E) 01:28:43 435.910
Cosmos 2491 08 Feb 01:21:31 01:27:59 22° 60° (ENE) 01:34:25 435.465 / 435.565
BEESAT 2 08 Feb 01:21:43 01:23:06 11° 31° (NNE) 01:24:28 435.950
TISAT 1 08 Feb 01:27:15 01:31:05 33° 263° (W) 01:34:56 437.305
NANOSAT C BR1 08 Feb 01:27:38 01:30:37 19° 296° (WNW) 01:33:37 145.865
DUCHIFAT 1 08 Feb 01:30:06 01:33:03 19° 296° (WNW) 01:35:59 145.980
QB50P1 08 Feb 01:34:41 01:37:18 16° 298° (WNW) 01:39:56 145.935-145.965
KKS-1 08 Feb 01:49:31 01:51:20 12° 59° (ENE) 01:53:08 437.445
SWISSCUBE 08 Feb 02:00:04 02:04:50 79° 255° (WSW) 02:09:39 437.505
CUSAT 1 08 Feb 02:11:01 02:18:38 54° 92° (E) 02:26:26 437.405
ITAMSAT 1 08 Feb 02:13:48 02:16:43 15° 89° (E) 02:19:36 435.822/435.867
YUBILEINY 08 Feb 02:18:08 02:23:02 16° 74° (ENE) 02:27:57 435.215
DANDE 08 Feb 02:26:28 02:33:35 44° 88° (E) 02:41:26 436.750
PHONESAT 2.4 08 Feb 02:35:17 02:37:35 18° 158° (SSE) 02:39:52 2401.200-2431.200
ITUPSAT 1 08 Feb 02:36:10 02:40:38 40° 262° (W) 02:45:10 437.325
BEESAT 3 08 Feb 02:37:33 02:41:29 57° 52° (NE) 02:45:21 437.485
BEESAT 08 Feb 02:46:25 02:50:39 31° 264° (W) 02:54:55 436.000
Oscar 19 08 Feb 02:47:32 02:52:36 59° 289° (WNW) 02:57:37 437.125/150
BEESAT 2 08 Feb 02:57:52 03:01:51 60° 52° (NE) 03:05:46 435.950
AIST 2 08 Feb 02:59:36 03:01:35 13° 33° (NNE) 03:03:32 435.215
Gurwin Techsat 1B 08 Feb 03:01:06 03:06:27 73° 103° (ESE) 03:11:45 435.225
MOZHAYETS 4 08 Feb 03:01:47 03:05:27 24° 65° (ENE) 03:09:08
JAS-2 08 Feb 03:05:13 03:11:03 66° 289° (WNW) 03:16:19 435.910
STARS 08 Feb 03:11:44 03:15:54 42° 70° (ENE) 03:20:04 437.465
Cosmos 2491 08 Feb 03:17:18 03:26:06 89° 264° (W) 03:34:54 435.465 / 435.565
KKS-1 08 Feb 03:22:47 03:27:15 83° 254° (WSW) 03:31:45 437.445
ITAMSAT 1 08 Feb 03:51:31 03:56:46 76° 287° (WNW) 04:01:59 435.822/435.867
CUSAT 1 08 Feb 03:53:49 04:01:11 39° 292° (WNW) 04:08:37 437.405
M-CUBED/EXP-1 PRIME 08 Feb 04:05:31 04:06:43 11° 98° (E) 04:07:55 437.505
DANDE 08 Feb 04:09:02 04:16:29 49° 290° (WNW) 04:24:42 436.750
YUBILEINY 08 Feb 04:09:32 04:18:16 78° 95° (E) 04:27:08 435.215
PHONESAT 2.4 08 Feb 04:11:21 04:14:22 35° 174° (S) 04:17:24 2401.200-2431.200
AO-7 08 Feb 04:15:10 04:23:13 49° 101° (E) 04:31:11 29.400- 29.500
BEESAT 3 08 Feb 04:16:31 04:18:47 15° 249° (WSW) 04:21:04 437.485
AUBIESAT-1 08 Feb 04:16:44 04:18:28 13° 99° (E) 04:20:15 437.475
AIST 2 08 Feb 04:36:43 04:40:52 68° 53° (NE) 04:44:57 435.215
BEESAT 2 08 Feb 04:37:05 04:39:16 14° 250° (WSW) 04:41:26 435.950
MOZHAYETS 4 08 Feb 04:38:11 04:42:26 38° 263° (W) 04:46:43
HORYU 2 08 Feb 04:39:19 04:43:16 30° 96° (E) 04:47:12 437.375
Gurwin Techsat 1B 08 Feb 04:42:19 04:45:49 18° 301° (WNW) 04:49:18 435.225
STARS 08 Feb 04:49:11 04:52:27 20° 267° (W) 04:55:44 437.465
JAS-2 08 Feb 04:53:11 04:54:49 11° 311° (NW) 04:56:25 435.910
Cosmos 2504 08 Feb 05:06:02 05:13:54 43° 86° (E) 05:22:04 435.465 / 435.565
CUBESAT XI-V 08 Feb 05:12:45 05:17:19 54° 72° (ENE) 05:21:56 437.345
Cosmos 2491 08 Feb 05:15:59 05:21:41 20° 284° (WNW) 05:27:23 435.465 / 435.565
ITAMSAT 1 08 Feb 05:33:20 05:35:22 12° 305° (NW) 05:37:24 435.822/435.867
M-CUBED/EXP-1 PRIME 08 Feb 05:38:24 05:41:36 45° 292° (WNW) 05:44:56 437.505
PHONESAT 2.4 08 Feb 05:48:22 05:51:19 30° 191° (S) 05:54:14 2401.200-2431.200
AUBIESAT-1 08 Feb 05:50:03 05:53:15 40° 293° (WNW) 05:56:34 437.475
DANDE 08 Feb 05:58:30 06:01:46 13° 312° (NW) 06:05:06 436.750
AO-7 08 Feb 06:08:12 06:15:53 43° 301° (WNW) 06:23:33 29.400- 29.500
SO-50 08 Feb 06:08:39 06:13:30 64° 122° (ESE) 06:18:25 436.795
YUBILEINY 08 Feb 06:09:05 06:16:05 26° 298° (WNW) 06:23:12 435.215
HORYU 2 08 Feb 06:15:58 06:19:46 29° 294° (WNW) 06:23:35 437.375
AIST 2 08 Feb 06:16:50 06:18:49 13° 251° (WSW) 06:20:47 435.215
STRAND 1 08 Feb 06:42:30 06:47:32 61° 72° (ENE) 06:52:37 437.568
BRITE-PL 08 Feb 06:43:44 06:47:38 24° 91° (E) 06:51:17 437.365/2234.400
CUBESAT XI-V 08 Feb 06:51:54 06:55:02 18° 269° (W) 06:58:13 437.345
CUTE-I 08 Feb 06:54:05 06:59:23 55° 101° (E) 07:04:38 437.470
Cosmos 2504 08 Feb 06:58:57 07:07:11 48° 288° (WNW) 07:15:46 435.465 / 435.565
Cubesat XI-IV 08 Feb 07:07:09 07:12:32 71° 103° (ESE) 07:17:54 437.490
LilacSat-2 08 Feb 07:12:56 07:16:44 84° 104° (ESE) 07:20:31 437.200
PHONESAT 2.4 08 Feb 07:26:31 07:28:00 13° 207° (SSW) 07:29:28 2401.200-2431.200
PRISM 08 Feb 07:39:37 07:43:45 73° 75° (ENE) 07:47:57 437.425
GONETS M04 08 Feb 07:44:55 07:48:03 12° 71° (ENE) 07:51:10
DOVE 4 08 Feb 07:50:09 07:53:48 26° 94° (E) 07:57:20 437.250
SO-50 08 Feb 07:50:22 07:54:26 25° 321° (NW) 07:58:31 436.795
GOMX 1 08 Feb 07:59:01 08:03:33 67° 101° (E) 08:07:48 467.674
AO-7 08 Feb 08:03:50 08:06:29 12° 324° (NW) 08:09:09 29.400- 29.500
CUTE 1.7 + AOD 2 08 Feb 08:10:27 08:13:32 19° 92° (E) 08:16:36 437.475
COMPASS 1 08 Feb 08:11:23 08:12:12 10° 88° (E) 08:13:00 437.405
SEEDS 08 Feb 08:20:15 08:23:14 18° 92° (E) 08:26:13 437.485
BRITE-PL 08 Feb 08:21:45 08:26:19 39° 291° (WNW) 08:30:32 437.365/2234.400
STRAND 1 08 Feb 08:23:43 08:27:08 18° 269° (W) 08:30:35 437.568
HO-68 08 Feb 08:29:02 08:35:42 39° 97° (E) 08:42:18 435.675
CUTE-I 08 Feb 08:34:53 08:39:03 23° 298° (WNW) 08:43:13 437.470
AAUSAT CUBESAT 2 08 Feb 08:40:02 08:42:58 18° 92° (E) 08:45:54 437.432
ANTELSAT 08 Feb 08:46:40 08:47:10 10° 58° (ENE) 08:47:40 437.575/2403.000
Cubesat XI-IV 08 Feb 08:48:24 08:52:03 19° 301° (WNW) 08:55:41 437.490
TIGRISAT 08 Feb 08:53:11 08:54:39 12° 59° (ENE) 08:56:05 435.000
CANX-2 08 Feb 08:54:20 08:58:37 63° 101° (E) 09:02:52 2200.000
O/OREOS (USA 219) 08 Feb 08:56:54 09:01:19 64° 110° (ESE) 09:05:48 437.305
CINEMA 3 08 Feb 08:57:56 09:01:58 48° 99° (E) 09:05:59 145.822/145.860
Cosmos 2504 08 Feb 09:01:02 09:03:16 11° 312° (NW) 09:05:31 435.465 / 435.565
CUBEBUG 2 08 Feb 09:17:30 09:21:09 28° 96° (E) 09:24:49 437.445
PRISM 08 Feb 09:18:38 09:19:37 11° 271° (W) 09:20:34 437.425
UWE-3 08 Feb 09:22:20 09:25:45 24° 94° (E) 09:29:12 435.000/436.395/437.385
DOVE 4 08 Feb 09:27:48 09:31:32 29° 293° (WNW) 09:35:07 437.250
Oscar 11 08 Feb 09:30:09 09:33:51 27° 95° (E) 09:37:33 145.826/435.025
UNISAT 6 08 Feb 09:34:26 09:38:13 30° 68° (ENE) 09:41:59 437.425
GONETS M04 08 Feb 09:34:28 09:42:59 65° 92° (E) 09:51:35
GOMX 1 08 Feb 09:38:39 09:41:02 14° 301° (WNW) 09:43:22 467.674
COMPASS 1 08 Feb 09:44:04 09:48:18 76° 284° (WNW) 09:52:30 437.405
CUTE 1.7 + AOD 2 08 Feb 09:45:32 09:49:34 42° 289° (WNW) 09:53:37 437.475
